GAOFEN-1 02

Last updated on Mon Oct 14 2024 00:02:25 GMT+0000 (Coordinated Universal Time)

1 43259U 18031A 24287.49300972 .00004041 00000+0 58643-3 0 9990 2 43259 97.8083 351.1966 0004525 155.6651 204.4774 14.76536611352431
UTC large
Height (km)
Speed (km/s)
/
Latitude / Longitude
Inclination (degrees)
Orbital Period (minutes)
Azimuth
Elevation
Range (km)
Doppler Factor

Next 0 passes for location: London (51.5072 / 0.1276)

Sorry there are no passes over London.